Flag for U.S.A. Weather past 2 weeks in Fayetteville, North Carolina, U.S.A.

Now
72 °F

Sunny.


Feels Like: 77 °F
Forecast: 44 / 70 °F
Wind: 12 mph from Southwest

Location: Fayetteville Regional Airport

Current Time: Oct 20, 2014 at 2:58:24 PM

Latest Report: Oct 20, 2014 at 1:53 PM


Visibility: 10 mi

Pressure: 30.03 "Hg

Humidity: 43%

Dew point: 48 °F

Location of FayettevilleLocation

Historic Weather in Fayetteville — Graph

°F

Fayetteville temperature yesterday

Maximum temperature yesterday: 68 °F (at 2:53 PM)
Minimum temperature yesterday: 49 °F (at 10:53 PM)
Average temperature yesterday: 59 °F

Past Weeks' High & Low Weather Summary

 TemperatureHumidityPressure
High89 °F (Oct 11, 1:53 PM)97% (Oct 12, 1:04 AM)30.24 "Hg (Oct 12, 1:04 AM)
Low41 °F (Oct 20, 6:53 AM)31% (Oct 5, 3:53 PM)29.72 "Hg (Oct 18, 2:53 PM)
Average67 °F73%30.00 "Hg
* Reported Oct 5 1:53 PM — Oct 20 1:53 PM, Fayetteville, Weather by CustomWeather, © 2014

Note: Actual official high and low records may vary slightly from our data, if they occured in-between our weather recording intervals... More about our weather records

Advertising

Fayetteville weather history for previous 24 hours

 ConditionsComfort  
Time TempWeatherWind HumidityBarometerVisibility
1:53 PM
Oct 20
72 °FSunny.12 mph43%30.03 "Hg10 mi
12:53 PM70 °FSunny.8 mph44%30.08 "Hg10 mi
11:53 AM68 °FSunny.12 mph42%30.11 "Hg10 mi
10:53 AM63 °FSunny.No wind52%30.14 "Hg10 mi
9:53 AM58 °FSunny.7 mph62%30.15 "Hg10 mi
8:53 AM50 °FSunny.3 mph83%30.16 "Hg10 mi
7:53 AM43 °FClear.No wind93%30.15 "Hg10 mi
6:53 AM41 °FClear.No wind93%30.14 "Hg10 mi
5:53 AM44 °FClear.3 mph89%30.14 "Hg10 mi
4:53 AM45 °FClear.5 mph86%30.12 "Hg10 mi
3:53 AM47 °FClear.3 mph83%30.11 "Hg10 mi
2:53 AM44 °FClear.5 mph93%30.12 "Hg10 mi
1:53 AM47 °FClear.No wind86%30.11 "Hg10 mi
12:53 AM49 °FClear.No wind86%30.12 "Hg10 mi
10:53 PM
Oct 19
49 °FClear.No wind90%30.11 "Hg10 mi
9:53 PM51 °FClear.No wind83%30.11 "Hg10 mi
8:53 PM52 °FClear.No wind77%30.10 "Hg10 mi
7:53 PM56 °FClear.No wind65%30.09 "Hg10 mi
6:53 PM58 °FSunny.5 mph62%30.06 "Hg10 mi
5:53 PM65 °FSunny.6 mph44%30.05 "Hg10 mi
4:53 PM68 °FSunny.8 mph36%30.05 "Hg10 mi
3:53 PM68 °FSunny.8 mph36%30.05 "Hg10 mi
2:53 PM68 °FSunny.12 mph36%30.05 "Hg10 mi
Weather by CustomWeather, © 2014

See weather overviewHow to use our weather pages